Weather WX

World > North America > United States > Pennsylvania

Bellemont, Pennsylvania Regional Weather

Lat: 39.99N, Lon: 76.1W
Wx Zone: PAZ066
Feedback

Bellemont, PA Regional Weather

Expires:201906252300;;073469
ASUS41 KPHI 252212
RWRPHI

REGIONAL WEATHER ROUNDUP
NATIONAL WEATHER SERVICE MOUNT HOLLY NJ
600 PM EDT TUE JUN 25 2019

NOTE:  "FAIR" INDICATES FEW OR NO CLOUDS BELOW 12,000 FEET WITH NO
SIGNIFICANT WEATHER AND/OR OBSTRUCTIONS TO VISIBILITY.

 * = STATION DOES NOT REPORT PRECIPITATION (E.G. RAIN, SNOW, ETC.) 
        OR FOG.


PAZ043-044-047-054-055-060>062-066>071-252300-
EASTERN PENNSYLVANIA
  
CITY           SKY/WX    TMP DP  RH WIND       PRES   REMARKS
PHILADELPHIA   PTSUNNY   87  61  41 W13       29.84R                  
NORTH PHILA    FAIR      88  64  44 W13       29.84S                  
BLUE BELL*     FAIR      86  65  49 W7        29.85S                  
DOYLESTOWN     FAIR      86  63  45 VRB7      29.84R                  
QUAKERTOWN*    SUNNY     84  64  51 VRB7G14   29.85                   
PERKASIE*      FAIR      82  63  51 W9        29.86S                  
POTTSTOWN      FAIR      83  63  50 VRB6      29.87R                  
LANCASTER      FAIR      85  63  47 NW15      29.87S                  
COATESVILLE    FAIR      82  64  54 W10       29.89S                  
WEST CHESTER   FAIR      86  59  39 W12G17    29.87S                  
READING        FAIR      85  65  51 W12       29.85R                  
ALLENTOWN      FAIR      86  63  45 W10       29.83S                  
QN CITY/ALNTWN FAIR     N/A N/A N/A W8        29.86S                  
MOUNT POCONO   FAIR      79  60  52 W12       29.91R                  
HAZLETON       FAIR      81  59  47 W5        29.94S                  
LEHIGHTON      FAIR      84  59  42 W6        29.86S                  
WILKES BARRE   FAIR      86  62  44 W10       29.85S                  

$$

SKY/WX - Weather  TMP - Temperature  DP - Dew Point  RH - Relative Humidity
WIND - Wind Direction/Speed PRES - Barometric Pressure VSB - Visibility
WCI - Wind Chill Index E13G22 Wind - East Wind 13 mph/Gusts of 22 mph